| time (UTC) | temp F | wind direction | speed knots | gust knots | rain 1hr in | rain 24hr in | rain mn in | humidity % | barometer mb |
| 20260502194617 | 71 | 241 | 4.3 | 10.4 | 0.00 | 0.00 | 0.00 | 8 | 1018.1 |
| 20260502194523 | 71 | 193 | 0.0 | 12.2 | 0.00 | 0.00 | 0.00 | 9 | 1018.3 |
| 20260502194117 | 72 | 280 | 5.2 | 10.4 | 0.00 | 0.00 | 0.00 | 11 | 1018.1 |
| 20260502194039 | 71 | 254 | 1.7 | 10.4 | 0.00 | 0.00 | 0.00 | 9 | 1018.6 |
| 20260502193617 | 71 | 275 | 4.3 | 10.4 | 0.00 | 0.00 | 0.00 | 10 | 1018.4 |
| 20260502193558 | 71 | 273 | 7.0 | 10.4 | 0.00 | 0.00 | 0.00 | 10 | 1018.5 |
| 20260502193117 | 71 | 250 | 4.3 | 9.6 | 0.00 | 0.00 | 0.00 | 12 | 1018.4 |
| 20260502192617 | 70 | 220 | 7.0 | 13.0 | 0.00 | 0.00 | 0.00 | 9 | 1018.4 |
| 20260502192511 | 70 | 239 | 5.2 | 13.0 | 0.00 | 0.00 | 0.00 | 8 | 1018.7 |
| 20260502192117 | 70 | 197 | 7.0 | 13.0 | 0.00 | 0.00 | 0.00 | 11 | 1018.8 |
| 20260502192030 | 70 | 213 | 6.1 | 13.0 | 0.00 | 0.00 | 0.00 | 13 | 1018.8 |
| 20260502191617 | 70 | 181 | 7.0 | 16.5 | 0.00 | 0.00 | 0.00 | 11 | 1018.8 |
| 20260502191552 | 69 | 204 | 3.5 | 16.5 | 0.00 | 0.00 | 0.00 | 10 | 1018.8 |
| 20260502191117 | 70 | 203 | 7.0 | 16.5 | 0.00 | 0.00 | 0.00 | 10 | 1018.8 |
| 20260502191108 | 69 | 110 | 7.8 | 16.5 | 0.00 | 0.00 | 0.00 | 11 | 1018.9 |
| 20260502190617 | 70 | 261 | 4.3 | 13.0 | 0.00 | 0.00 | 0.00 | 11 | 1018.6 |
| 20260502190138 | 69 | 281 | 2.6 | 13.9 | 0.00 | 0.00 | 0.00 | 14 | 1018.6 |
| 20260502190026 | 68 | 59 | 1.7 | 7.0 | 0.00 | 0.00 | 0.00 | 12 | 1018.8 |
| 20260502185617 | 69 | 155 | 4.3 | 13.9 | 0.00 | 0.00 | 0.00 | 11 | 1018.8 |
| 20260502185117 | 68 | 155 | 5.2 | 13.0 | 0.00 | 0.00 | 0.00 | 13 | 1019.0 |
| 20260502185005 | 68 | 128 | 6.1 | 13.9 | 0.00 | 0.00 | 0.00 | 13 | 1019.1 |
| 20260502184617 | 68 | 135 | 5.2 | 13.0 | 0.00 | 0.00 | 0.00 | 11 | 1019.0 |
| 20260502184523 | 68 | 165 | 9.6 | 12.2 | 0.00 | 0.00 | 0.00 | 10 | 1019.1 |
| 20260502184117 | 69 | 129 | 7.8 | 14.8 | 0.00 | 0.00 | 0.00 | 12 | 1019.0 |
| 20260502184037 | 68 | 128 | 6.1 | 12.2 | 0.00 | 0.00 | 0.00 | 11 | 1019.3 |
| 20260502183617 | 69 | 120 | 8.7 | 15.6 | 0.00 | 0.00 | 0.00 | 13 | 1019.2 |
| 20260502183559 | 69 | 120 | 7.8 | 15.6 | 0.00 | 0.00 | 0.00 | 11 | 1019.5 |
| 20260502183138 | 69 | 109 | 7.8 | 15.6 | 0.00 | 0.00 | 0.00 | 12 | 1019.2 |
| 20260502183008 | 68 | 108 | 11.3 | 15.6 | 0.00 | 0.00 | 0.00 | 13 | 1019.1 |
| 20260502182617 | 69 | 118 | 7.8 | 13.0 | 0.00 | 0.00 | 0.00 | 13 | 1019.2 |
| 20260502182525 | 68 | 137 | 6.1 | 13.0 | 0.00 | 0.00 | 0.00 | 13 | 1019.5 |
| 20260502182117 | 68 | 122 | 8.7 | 13.0 | 0.00 | 0.00 | 0.00 | 12 | 1019.2 |
| 20260502182046 | 68 | 130 | 10.4 | 14.8 | 0.00 | 0.00 | 0.00 | 13 | 1019.5 |
| 20260502181617 | 68 | 114 | 8.7 | 14.8 | 0.00 | 0.00 | 0.00 | 12 | 1019.2 |
| 20260502181117 | 68 | 110 | 7.8 | 14.8 | 0.00 | 0.00 | 0.00 | 13 | 1019.4 |
| 20260502181055 | 68 | 101 | 8.7 | 14.8 | 0.00 | 0.00 | 0.00 | 13 | 1019.5 |
| 20260502180617 | 68 | 124 | 6.1 | 12.2 | 0.00 | 0.00 | 0.00 | 16 | 1019.6 |
| 20260502180505 | 68 | 74 | 8.7 | 12.2 | 0.00 | 0.00 | 0.00 | 15 | 1019.6 |
| 20260502180117 | 68 | 144 | 5.2 | 10.4 | 0.00 | 0.00 | 0.00 | 14 | 1019.6 |
| 20260502170506 | 65 | 258 | 0.0 | 6.1 | 0.00 | 0.00 | 0.00 | 24 | 1020.1 |
| 20260502170117 | 65 | 286 | 3.5 | 6.1 | 0.00 | 0.00 | 0.00 | 25 | 1019.7 |
| 20260502164117 | 63 | 285 | 5.2 | 7.8 | 0.00 | 0.00 | 0.00 | 28 | 1019.8 |
| 20260502164055 | 63 | 297 | 3.5 | 7.8 | 0.00 | 0.00 | 0.00 | 28 | 1020.1 |
| 20260502163617 | 63 | 284 | 4.3 | 7.8 | 0.00 | 0.00 | 0.00 | 28 | 1019.8 |
| 20260502163507 | 63 | 305 | 2.6 | 7.8 | 0.00 | 0.00 | 0.00 | 28 | 1020.1 |
| 20260502163117 | 63 | 285 | 5.2 | 8.7 | 0.00 | 0.00 | 0.00 | 27 | 1019.9 |
| 20260502162617 | 64 | 288 | 6.1 | 8.7 | 0.00 | 0.00 | 0.00 | 26 | 1019.9 |
| 20260502162523 | 63 | 300 | 3.5 | 8.7 | 0.00 | 0.00 | 0.00 | 26 | 1020.3 |
| 20260502162117 | 64 | 289 | 4.3 | 8.7 | 0.00 | 0.00 | 0.00 | 26 | 1019.9 |
| 20260502162044 | 63 | 291 | 4.3 | 8.7 | 0.00 | 0.00 | 0.00 | 26 | 1020.4 |
| 20260502161617 | 64 | 249 | 2.6 | 8.7 | 0.00 | 0.00 | 0.00 | 25 | 1019.9 |
| 20260502161605 | 64 | 302 | 6.1 | 8.7 | 0.00 | 0.00 | 0.00 | 26 | 1020.4 |
| 20260502161117 | 63 | 185 | 2.6 | 7.8 | 0.00 | 0.00 | 0.00 | 20 | 1019.9 |
| 20260502161012 | 63 | 121 | 2.6 | 7.0 | 0.00 | 0.00 | 0.00 | 23 | 1020.1 |
| 20260502160617 | 63 | 277 | 2.6 | 7.8 | 0.00 | 0.00 | 0.00 | 26 | 1019.9 |
| 20260502160532 | 63 | 153 | 1.7 | 6.1 | 0.00 | 0.00 | 0.00 | 24 | 1020.1 |
| 20260502160117 | 64 | 262 | 2.6 | 6.1 | 0.00 | 0.00 | 0.00 | 26 | 1019.9 |
| 20260502152117 | 60 | 107 | 7.8 | 11.3 | 0.00 | 0.00 | 0.00 | 22 | 1019.9 |
| 20260502152044 | 60 | 80 | 9.6 | 11.3 | 0.00 | 0.00 | 0.00 | 22 | 1020.2 |
| 20260502151617 | 60 | 113 | 7.8 | 11.3 | 0.00 | 0.00 | 0.00 | 21 | 1019.9 |
| 20260502151606 | 59 | 100 | 8.7 | 11.3 | 0.00 | 0.00 | 0.00 | 21 | 1020.3 |
| 20260502151117 | 60 | 117 | 7.8 | 12.2 | 0.00 | 0.00 | 0.00 | 22 | 1019.7 |
| 20260502151055 | 59 | 132 | 7.0 | 12.2 | 0.00 | 0.00 | 0.00 | 22 | 1020.3 |
| 20260502150617 | 59 | 116 | 8.7 | 12.2 | 0.00 | 0.00 | 0.00 | 20 | 1019.7 |
| 20260502150505 | 59 | 105 | 8.7 | 12.2 | 0.00 | 0.00 | 0.00 | 21 | 1020.2 |
| 20260502150138 | 59 | 115 | 8.7 | 13.0 | 0.00 | 0.00 | 0.00 | 22 | 1019.8 |
| 20260502130617 | 48 | 72 | 4.3 | 9.6 | 0.00 | 0.00 | 0.00 | 34 | 1019.7 |
| 20260502130510 | 47 | 67 | 3.5 | 7.8 | 0.00 | 0.00 | 0.00 | 34 | 1020.0 |
| 20260502130117 | 48 | 70 | 5.2 | 9.6 | 0.00 | 0.00 | 0.00 | 34 | 1019.7 |
| 20260502123617 | 46 | 72 | 5.2 | 10.4 | 0.00 | 0.00 | 0.00 | 35 | 1019.5 |
| 20260502123558 | 46 | 87 | 9.6 | 10.4 | 0.00 | 0.00 | 0.00 | 35 | 1020.1 |
| 20260502123117 | 45 | 69 | 3.5 | 9.6 | 0.00 | 0.00 | 0.00 | 36 | 1019.5 |
| 20260502123008 | 45 | 82 | 4.3 | 6.1 | 0.00 | 0.00 | 0.00 | 36 | 1020.1 |
| 20260502122617 | 45 | 71 | 3.5 | 7.0 | 0.00 | 0.00 | 0.00 | 37 | 1019.5 |
| 20260502122526 | 44 | 55 | 3.5 | 5.2 | 0.00 | 0.00 | 0.00 | 37 | 1019.9 |
| 20260502122117 | 44 | 74 | 2.6 | 5.2 | 0.00 | 0.00 | 0.00 | 37 | 1019.5 |
| 20260502121638 | 44 | 76 | 1.7 | 5.2 | 0.00 | 0.00 | 0.00 | 37 | 1019.7 |
| 20260502121551 | 44 | 69 | 1.7 | 5.2 | 0.00 | 0.00 | 0.00 | 37 | 1020.0 |
| 20260502121117 | 45 | 158 | 0.0 | 1.7 | 0.00 | 0.00 | 0.00 | 37 | 1019.7 |
| 20260502121108 | 44 | 158 | 0.9 | 1.7 | 0.00 | 0.00 | 0.00 | 37 | 1020.0 |
| 20260502120617 | 45 | 158 | 0.9 | 1.7 | 0.00 | 0.00 | 0.00 | 36 | 1019.7 |
| 20260502120117 | 45 | 158 | 0.9 | 1.7 | 0.00 | 0.00 | 0.00 | 37 | 1019.7 |
| 20260502115638 | 45 | 148 | 0.9 | 2.6 | 0.00 | 0.00 | 0.00 | 36 | 1019.7 |
| 20260502115607 | 45 | 158 | 1.7 | 2.6 | 0.00 | 0.00 | 0.00 | 37 | 1019.9 |
| 20260502115117 | 45 | 79 | 2.6 | 5.2 | 0.00 | 0.00 | 0.00 | 37 | 1019.7 |
| 20260502115018 | 45 | 158 | 0.9 | 5.2 | 0.00 | 0.00 | 0.00 | 37 | 1019.8 |
| 20260502114617 | 46 | 62 | 3.5 | 7.0 | 0.00 | 0.00 | 0.00 | 35 | 1019.7 |
| 20260502114117 | 46 | 65 | 3.5 | 7.0 | 0.00 | 0.00 | 0.00 | 35 | 1019.6 |
| 20260502114009 | 46 | 45 | 1.7 | 7.0 | 0.00 | 0.00 | 0.00 | 35 | 1019.9 |
| 20260502113617 | 46 | 65 | 4.3 | 8.7 | 0.00 | 0.00 | 0.00 | 36 | 1019.6 |
| 20260502113530 | 46 | 65 | 3.5 | 8.7 | 0.00 | 0.00 | 0.00 | 36 | 1020.0 |
| 20260502113117 | 46 | 65 | 4.3 | 8.7 | 0.00 | 0.00 | 0.00 | 37 | 1019.6 |
| 20260502113050 | 45 | 57 | 2.6 | 8.7 | 0.00 | 0.00 | 0.00 | 37 | 1019.9 |
| 20260502112617 | 45 | 69 | 3.5 | 7.8 | 0.00 | 0.00 | 0.00 | 37 | 1019.6 |
| 20260502112458 | 44 | 67 | 5.2 | 7.8 | 0.00 | 0.00 | 0.00 | 37 | 1019.9 |
| 20260502112117 | 45 | 57 | 2.6 | 4.3 | 0.00 | 0.00 | 0.00 | 37 | 1019.8 |
| 20260502112017 | 44 | 69 | 3.5 | 5.2 | 0.00 | 0.00 | 0.00 | 37 | 1020.1 |
| 20260502111617 | 44 | 43 | 3.5 | 7.8 | 0.00 | 0.00 | 0.00 | 38 | 1019.8 |
| 20260502111538 | 44 | 62 | 1.7 | 7.8 | 0.00 | 0.00 | 0.00 | 38 | 1020.0 |
| 20260502111117 | 44 | 48 | 4.3 | 7.8 | 0.00 | 0.00 | 0.00 | 38 | 1019.8 |
| 20260502111056 | 43 | 45 | 5.2 | 7.8 | 0.00 | 0.00 | 0.00 | 38 | 1019.9 |
| 20260502110638 | 44 | 65 | 3.5 | 6.1 | 0.00 | 0.00 | 0.00 | 38 | 1019.6 |
| 20260502110506 | 43 | 52 | 3.5 | 5.2 | 0.00 | 0.00 | 0.00 | 38 | 1019.9 |
| 20260502110117 | 44 | 82 | 2.6 | 4.3 | 0.00 | 0.00 | 0.00 | 37 | 1019.6 |
| 20260502110025 | 43 | 71 | 1.7 | 3.5 | 0.00 | 0.00 | 0.00 | 37 | 1019.9 |
| 20260502105638 | 44 | 93 | 1.7 | 3.5 | 0.00 | 0.00 | 0.00 | 37 | 1019.6 |
| 20260502105533 | 43 | 82 | 2.6 | 3.5 | 0.00 | 0.00 | 0.00 | 37 | 1019.9 |
| 20260502105117 | 44 | 98 | 1.7 | 2.6 | 0.00 | 0.00 | 0.00 | 37 | 1019.7 |
| 20260502105053 | 43 | 99 | 1.7 | 2.6 | 0.00 | 0.00 | 0.00 | 37 | 1020.0 |
| 20260502104617 | 44 | 98 | 1.7 | 1.7 | 0.00 | 0.00 | 0.00 | 38 | 1019.7 |
| 20260502104117 | 44 | 98 | 0.9 | 1.7 | 0.00 | 0.00 | 0.00 | 39 | 1019.7 |
| 20260502104106 | 43 | 98 | 0.9 | 1.7 | 0.00 | 0.00 | 0.00 | 39 | 1020.0 |
| 20260502103617 | 43 | 98 | 0.9 | 2.6 | 0.00 | 0.00 | 0.00 | 39 | 1019.7 |
| 20260502103510 | 43 | 98 | 0.0 | 2.6 | 0.00 | 0.00 | 0.00 | 38 | 1020.1 |
| 20260502103117 | 43 | 98 | 0.9 | 2.6 | 0.00 | 0.00 | 0.00 | 39 | 1019.7 |
| 20260502102617 | 43 | 98 | 0.9 | 2.6 | 0.00 | 0.00 | 0.00 | 39 | 1019.6 |
| 20260502102522 | 42 | 98 | 0.9 | 2.6 | 0.00 | 0.00 | 0.00 | 39 | 1019.9 |
| 20260502102117 | 43 | 97 | 0.9 | 2.6 | 0.00 | 0.00 | 0.00 | 39 | 1019.7 |
| 20260502102042 | 42 | 98 | 0.9 | 2.6 | 0.00 | 0.00 | 0.00 | 39 | 1019.9 |
| 20260502101617 | 43 | 92 | 0.9 | 2.6 | 0.00 | 0.00 | 0.00 | 39 | 1019.7 |
| 20260502101603 | 42 | 98 | 0.0 | 2.6 | 0.00 | 0.00 | 0.00 | 39 | 1020.0 |
| 20260502101117 | 42 | 99 | 1.7 | 2.6 | 0.00 | 0.00 | 0.00 | 39 | 1019.7 |
| 20260502101011 | 42 | 92 | 0.9 | 2.6 | 0.00 | 0.00 | 0.00 | 39 | 1019.9 |
| 20260502100617 | 42 | 124 | 0.9 | 2.6 | 0.00 | 0.00 | 0.00 | 39 | 1019.6 |
| 20260502100530 | 42 | 108 | 1.7 | 2.6 | 0.00 | 0.00 | 0.00 | 39 | 1020.0 |
| 20260502100117 | 42 | 181 | 0.0 | 1.7 | 0.00 | 0.00 | 0.00 | 40 | 1019.7 |
| 20260502091117 | 45 | 183 | 0.9 | 1.7 | 0.00 | 0.00 | 0.00 | 35 | 1019.7 |
| 20260502091007 | 45 | 188 | 0.9 | 1.7 | 0.00 | 0.00 | 0.00 | 35 | 1020.0 |
| 20260502090638 | 45 | 198 | 1.7 | 2.6 | 0.00 | 0.00 | 0.00 | 35 | 1019.5 |
| 20260502090527 | 45 | 182 | 0.9 | 2.6 | 0.00 | 0.00 | 0.00 | 35 | 1020.0 |
| 20260502090117 | 45 | 221 | 0.9 | 2.6 | 0.00 | 0.00 | 0.00 | 34 | 1019.5 |
| 20260502071117 | 53 | 100 | 7.0 | 9.6 | 0.00 | 0.00 | 0.00 | 22 | 1019.4 |
| 20260502071005 | 53 | 100 | 5.2 | 9.6 | 0.00 | 0.00 | 0.00 | 22 | 1019.6 |
| 20260502070617 | 52 | 101 | 7.0 | 9.6 | 0.00 | 0.00 | 0.00 | 24 | 1019.4 |
| 20260502070525 | 52 | 101 | 6.1 | 9.6 | 0.00 | 0.00 | 0.00 | 24 | 1019.7 |
| 20260502070138 | 51 | 100 | 5.2 | 9.6 | 0.00 | 0.00 | 0.00 | 26 | 1019.3 |
| 20260502065617 | 51 | 83 | 3.5 | 7.0 | 0.00 | 0.00 | 0.00 | 27 | 1019.4 |
| 20260502065138 | 51 | 67 | 4.3 | 7.0 | 0.00 | 0.00 | 0.00 | 27 | 1019.4 |
| 20260502065008 | 51 | 64 | 2.6 | 6.1 | 0.00 | 0.00 | 0.00 | 27 | 1019.8 |
| 20260502064617 | 51 | 67 | 5.2 | 8.7 | 0.00 | 0.00 | 0.00 | 27 | 1019.3 |
| 20260502064117 | 52 | 72 | 6.1 | 8.7 | 0.00 | 0.00 | 0.00 | 26 | 1019.3 |
| 20260502064029 | 51 | 59 | 2.6 | 8.7 | 0.00 | 0.00 | 0.00 | 26 | 1019.6 |
| 20260502063617 | 52 | 88 | 6.1 | 8.7 | 0.00 | 0.00 | 0.00 | 25 | 1019.3 |
| 20260502063550 | 52 | 75 | 7.0 | 8.7 | 0.00 | 0.00 | 0.00 | 25 | 1019.7 |
| 20260502063117 | 52 | 97 | 7.0 | 7.8 | 0.00 | 0.00 | 0.00 | 25 | 1019.4 |
| 20260502063003 | 51 | 87 | 4.3 | 7.8 | 0.00 | 0.00 | 0.00 | 25 | 1019.7 |
| 20260502062617 | 50 | 98 | 6.1 | 7.8 | 0.00 | 0.00 | 0.00 | 26 | 1019.4 |
| 20260502062117 | 50 | 94 | 4.3 | 7.8 | 0.00 | 0.00 | 0.00 | 26 | 1019.4 |
| 20260502062019 | 50 | 101 | 6.1 | 7.0 | 0.00 | 0.00 | 0.00 | 26 | 1019.6 |
| 20260502061617 | 50 | 85 | 2.6 | 7.0 | 0.00 | 0.00 | 0.00 | 26 | 1019.4 |
| 20260502061540 | 50 | 90 | 3.5 | 5.2 | 0.00 | 0.00 | 0.00 | 26 | 1019.7 |
| 20260502061117 | 50 | 87 | 2.6 | 7.0 | 0.00 | 0.00 | 0.00 | 25 | 1019.4 |
| 20260502061057 | 50 | 69 | 1.7 | 3.5 | 0.00 | 0.00 | 0.00 | 25 | 1019.6 |
| 20260502060638 | 51 | 87 | 2.6 | 7.0 | 0.00 | 0.00 | 0.00 | 25 | 1019.4 |
| 20260502060507 | 51 | 101 | 2.6 | 4.3 | 0.00 | 0.00 | 0.00 | 25 | 1019.7 |
| 20260502060117 | 51 | 75 | 3.5 | 6.1 | 0.00 | 0.00 | 0.00 | 25 | 1019.4 |
| 20260502060028 | 51 | 77 | 2.6 | 7.0 | 0.00 | 0.00 | 0.00 | 24 | 1019.8 |
| 20260502055617 | 52 | 72 | 4.3 | 7.0 | 0.00 | 0.00 | 0.00 | 24 | 1019.5 |
| 20260502055504 | 51 | 61 | 4.3 | 7.0 | 0.00 | 0.00 | 0.00 | 24 | 1019.9 |
| 20260502055117 | 52 | 76 | 4.3 | 7.0 | 0.00 | 0.00 | 0.00 | 24 | 1019.5 |
| 20260502055025 | 51 | 85 | 2.6 | 7.0 | 0.00 | 0.00 | 0.00 | 24 | 1019.7 |
| 20260502054617 | 52 | 82 | 4.3 | 7.0 | 0.00 | 0.00 | 0.00 | 24 | 1019.3 |
| 20260502054544 | 51 | 82 | 3.5 | 7.0 | 0.00 | 0.00 | 0.00 | 24 | 1019.6 |
| 20260502054117 | 52 | 88 | 4.3 | 7.0 | 0.00 | 0.00 | 0.00 | 23 | 1019.3 |
| 20260502054059 | 51 | 80 | 3.5 | 7.0 | 0.00 | 0.00 | 0.00 | 23 | 1019.5 |
| 20260502053617 | 52 | 97 | 3.5 | 6.1 | 0.00 | 0.00 | 0.00 | 24 | 1019.3 |
| 20260502053509 | 52 | 96 | 5.2 | 6.1 | 0.00 | 0.00 | 0.00 | 24 | 1019.6 |
| 20260502053117 | 52 | 94 | 4.3 | 8.7 | 0.00 | 0.00 | 0.00 | 24 | 1019.4 |
| 20260502053027 | 52 | 90 | 3.5 | 8.7 | 0.00 | 0.00 | 0.00 | 24 | 1019.8 |
| 20260502052638 | 52 | 87 | 6.1 | 8.7 | 0.00 | 0.00 | 0.00 | 24 | 1019.4 |
| 20260502052546 | 52 | 96 | 3.5 | 8.7 | 0.00 | 0.00 | 0.00 | 24 | 1019.8 |
| 20260502052117 | 52 | 80 | 6.1 | 7.8 | 0.00 | 0.00 | 0.00 | 23 | 1019.4 |
| 20260502051617 | 52 | 79 | 4.3 | 7.8 | 0.00 | 0.00 | 0.00 | 24 | 1019.5 |
| 20260502051606 | 52 | 95 | 7.0 | 7.8 | 0.00 | 0.00 | 0.00 | 24 | 1019.8 |
| 20260502051117 | 53 | 91 | 4.3 | 7.8 | 0.00 | 0.00 | 0.00 | 23 | 1019.5 |
| 20260502051012 | 52 | 80 | 6.1 | 7.0 | 0.00 | 0.00 | 0.00 | 23 | 1019.8 |
| 20260502050638 | 52 | 106 | 3.5 | 6.1 | 0.00 | 0.00 | 0.00 | 22 | 1019.5 |
| 20260502050533 | 52 | 100 | 5.2 | 5.2 | 0.00 | 0.00 | 0.00 | 23 | 1019.9 |
| 20260502050117 | 52 | 111 | 3.5 | 6.1 | 0.00 | 0.00 | 0.00 | 23 | 1019.5 |
| 20260502045638 | 52 | 106 | 3.5 | 6.1 | 0.00 | 0.00 | 0.00 | 24 | 1019.5 |
| 20260502045525 | 52 | 109 | 3.5 | 6.1 | 0.00 | 0.00 | 0.00 | 23 | 1019.9 |
| 20260502045117 | 52 | 98 | 2.6 | 6.1 | 0.00 | 0.00 | 0.00 | 23 | 1019.5 |
| 20260502045043 | 52 | 101 | 1.7 | 5.2 | 0.00 | 0.00 | 0.00 | 23 | 1019.9 |
| 20260502044617 | 53 | 88 | 2.6 | 6.1 | 0.00 | 0.00 | 0.00 | 24 | 1019.5 |
| 20260502044117 | 53 | 79 | 3.5 | 6.1 | 0.00 | 0.00 | 0.00 | 23 | 1019.5 |
| 20260502043617 | 53 | 80 | 4.3 | 7.0 | 0.00 | 0.00 | 0.00 | 23 | 1019.5 |
| 20260502043601 | 52 | 94 | 3.5 | 7.0 | 0.00 | 0.00 | 0.00 | 23 | 1019.9 |
| 20260502043117 | 53 | 79 | 5.2 | 9.6 | 0.00 | 0.00 | 0.00 | 23 | 1019.5 |
| 20260502043010 | 52 | 70 | 4.3 | 9.6 | 0.00 | 0.00 | 0.00 | 23 | 1019.8 |
| 20260502042638 | 53 | 81 | 6.1 | 9.6 | 0.00 | 0.00 | 0.00 | 23 | 1019.4 |
| 20260502042514 | 52 | 75 | 6.1 | 9.6 | 0.00 | 0.00 | 0.00 | 23 | 1019.9 |
| 20260502042117 | 52 | 84 | 5.2 | 9.6 | 0.00 | 0.00 | 0.00 | 23 | 1019.4 |
| 20260502042035 | 52 | 80 | 6.1 | 8.7 | 0.00 | 0.00 | 0.00 | 23 | 1019.8 |
| 20260502041617 | 52 | 83 | 4.3 | 7.0 | 0.00 | 0.00 | 0.00 | 22 | 1019.4 |
| 20260502041555 | 52 | 80 | 4.3 | 7.0 | 0.00 | 0.00 | 0.00 | 23 | 1019.8 |
| 20260502041117 | 52 | 82 | 4.3 | 7.0 | 0.00 | 0.00 | 0.00 | 21 | 1019.3 |
| 20260502041000 | 52 | 74 | 2.6 | 7.0 | 0.00 | 0.00 | 0.00 | 22 | 1019.7 |
| 20260502040617 | 53 | 77 | 5.2 | 7.8 | 0.00 | 0.00 | 0.00 | 21 | 1019.3 |
| 20260502040117 | 53 | 76 | 5.2 | 7.8 | 0.00 | 0.00 | 0.00 | 20 | 1019.3 |
| 20260502040028 | 53 | 74 | 4.3 | 7.8 | 0.00 | 0.00 | 0.00 | 20 | 1019.7 |
| 20260502035617 | 53 | 76 | 5.2 | 7.0 | 0.00 | 0.00 | 0.00 | 20 | 1019.4 |
| 20260502035502 | 53 | 80 | 7.0 | 7.0 | 0.00 | 0.00 | 0.00 | 20 | 1019.6 |
| 20260502035117 | 53 | 77 | 5.2 | 7.8 | 0.00 | 0.00 | 0.00 | 20 | 1019.4 |
| 20260502034617 | 53 | 78 | 6.1 | 7.8 | 0.00 | 0.00 | 0.00 | 19 | 1019.4 |
| 20260502034117 | 53 | 75 | 5.2 | 7.8 | 0.00 | 0.00 | 0.00 | 19 | 1019.2 |
| 20260502034020 | 52 | 76 | 3.5 | 7.8 | 0.00 | 0.00 | 0.00 | 18 | 1019.4 |
| 20260502033638 | 53 | 73 | 5.2 | 7.8 | 0.00 | 0.00 | 0.00 | 18 | 1019.2 |
| 20260502033538 | 53 | 76 | 4.3 | 7.8 | 0.00 | 0.00 | 0.00 | 18 | 1019.5 |
| 20260502033138 | 53 | 73 | 5.2 | 7.8 | 0.00 | 0.00 | 0.00 | 19 | 1019.2 |
| 20260502033058 | 53 | 78 | 4.3 | 7.8 | 0.00 | 0.00 | 0.00 | 18 | 1019.6 |
| 20260502032617 | 54 | 75 | 5.2 | 7.8 | 0.00 | 0.00 | 0.00 | 18 | 1019.2 |
| 20260502032502 | 53 | 77 | 6.1 | 7.8 | 0.00 | 0.00 | 0.00 | 18 | 1019.5 |
| 20260502032117 | 54 | 75 | 4.3 | 7.8 | 0.00 | 0.00 | 0.00 | 18 | 1019.2 |
| 20260502032022 | 53 | 82 | 6.1 | 7.8 | 0.00 | 0.00 | 0.00 | 18 | 1019.5 |
| 20260502031617 | 54 | 75 | 4.3 | 7.0 | 0.00 | 0.00 | 0.00 | 18 | 1019.2 |
| 20260502031543 | 54 | 74 | 4.3 | 7.0 | 0.00 | 0.00 | 0.00 | 18 | 1019.3 |
| 20260502031117 | 54 | 75 | 4.3 | 7.0 | 0.00 | 0.00 | 0.00 | 18 | 1019.0 |
| 20260502031057 | 54 | 78 | 4.3 | 7.0 | 0.00 | 0.00 | 0.00 | 18 | 1019.4 |
| 20260502030617 | 54 | 74 | 4.3 | 7.0 | 0.00 | 0.00 | 0.00 | 18 | 1019.0 |
| 20260502030507 | 54 | 64 | 5.2 | 7.0 | 0.00 | 0.00 | 0.00 | 18 | 1019.4 |
| 20260502030138 | 55 | 77 | 3.5 | 6.1 | 0.00 | 0.00 | 0.00 | 18 | 1019.0 |
| 20260502030021 | 54 | 74 | 4.3 | 5.2 | 0.00 | 0.00 | 0.00 | 18 | 1019.3 |
| 20260502025617 | 55 | 76 | 3.5 | 6.1 | 0.00 | 0.00 | 0.00 | 18 | 1019.0 |
| 20260502025530 | 55 | 79 | 3.5 | 6.1 | 0.00 | 0.00 | 0.00 | 18 | 1019.3 |
| 20260502025138 | 56 | 72 | 3.5 | 6.1 | 0.00 | 0.00 | 0.00 | 18 | 1019.0 |
| 20260502025049 | 55 | 75 | 3.5 | 6.1 | 0.00 | 0.00 | 0.00 | 17 | 1019.4 |
| 20260502024638 | 57 | 68 | 3.5 | 6.1 | 0.00 | 0.00 | 0.00 | 18 | 1019.0 |
| 20260502024502 | 56 | 82 | 4.3 | 5.2 | 0.00 | 0.00 | 0.00 | 17 | 1019.2 |
| 20260502024117 | 58 | 62 | 1.7 | 4.3 | 0.00 | 0.00 | 0.00 | 16 | 1018.8 |
| 20260502024013 | 57 | 65 | 3.5 | 3.5 | 0.00 | 0.00 | 0.00 | 16 | 1019.2 |
| 20260502023617 | 58 | 49 | 0.9 | 2.6 | 0.00 | 0.00 | 0.00 | 16 | 1018.8 |
| 20260502023532 | 58 | 70 | 1.7 | 2.6 | 0.00 | 0.00 | 0.00 | 15 | 1019.1 |
| 20260502023117 | 59 | 307 | 0.0 | 1.7 | 0.00 | 0.00 | 0.00 | 16 | 1018.8 |
| 20260502023053 | 59 | 316 | 0.0 | 1.7 | 0.00 | 0.00 | 0.00 | 16 | 1019.3 |
| 20260502022617 | 60 | 294 | 0.0 | 1.7 | 0.00 | 0.00 | 0.00 | 14 | 1019.0 |
| 20260502022117 | 60 | 294 | 0.0 | 1.7 | 0.00 | 0.00 | 0.00 | 12 | 1019.0 |
| 20260502021617 | 60 | 294 | 0.9 | 1.7 | 0.00 | 0.00 | 0.00 | 12 | 1018.9 |
| 20260502021610 | 60 | 294 | 0.9 | 1.7 | 0.00 | 0.00 | 0.00 | 12 | 1019.3 |
| 20260502021138 | 61 | 297 | 0.9 | 2.6 | 0.00 | 0.00 | 0.00 | 13 | 1018.9 |
| 20260502021014 | 60 | 294 | 0.0 | 2.6 | 0.00 | 0.00 | 0.00 | 13 | 1019.4 |
| 20260502020617 | 61 | 301 | 1.7 | 2.6 | 0.00 | 0.00 | 0.00 | 13 | 1019.0 |
| 20260502020532 | 61 | 294 | 1.7 | 2.6 | 0.00 | 0.00 | 0.00 | 13 | 1019.4 |
| 20260502020117 | 62 | 295 | 1.7 | 4.3 | 0.00 | 0.00 | 0.00 | 12 | 1019.0 |
| 20260502015638 | 62 | 285 | 2.6 | 5.2 | 0.00 | 0.00 | 0.00 | 11 | 1019.1 |
| 20260502015514 | 62 | 286 | 2.6 | 4.3 | 0.00 | 0.00 | 0.00 | 10 | 1019.4 |
| 20260502015117 | 63 | 287 | 3.5 | 7.0 | 0.00 | 0.00 | 0.00 | 10 | 1018.9 |
| 20260502015034 | 62 | 290 | 3.5 | 7.0 | 0.00 | 0.00 | 0.00 | 9 | 1019.3 |
| 20260502014617 | 63 | 285 | 3.5 | 7.0 | 0.00 | 0.00 | 0.00 | 11 | 1018.9 |
| 20260502014138 | 64 | 282 | 3.5 | 7.0 | 0.00 | 0.00 | 0.00 | 9 | 1018.9 |
| 20260502013617 | 65 | 293 | 3.5 | 7.0 | 0.00 | 0.00 | 0.00 | 9 | 1018.9 |
| 20260502013557 | 64 | 273 | 3.5 | 7.0 | 0.00 | 0.00 | 0.00 | 9 | 1019.1 |
| 20260502013138 | 65 | 300 | 3.5 | 7.8 | 0.00 | 0.00 | 0.00 | 11 | 1018.9 |
| 20260502013054 | 65 | 319 | 2.6 | 7.8 | 0.00 | 0.00 | 0.00 | 10 | 1019.1 |
| 20260502012617 | 66 | 304 | 4.3 | 8.7 | 0.00 | 0.00 | 0.00 | 11 | 1018.9 |
| 20260502012501 | 66 | 295 | 1.7 | 8.7 | 0.00 | 0.00 | 0.00 | 10 | 1019.2 |
| 20260502012117 | 66 | 298 | 5.2 | 8.7 | 0.00 | 0.00 | 0.00 | 10 | 1019.0 |
| 20260502012019 | 66 | 309 | 4.3 | 8.7 | 0.00 | 0.00 | 0.00 | 10 | 1019.2 |
| 20260502011617 | 66 | 288 | 5.2 | 8.7 | 0.00 | 0.00 | 0.00 | 11 | 1019.0 |
| 20260502011541 | 66 | 303 | 6.1 | 8.7 | 0.00 | 0.00 | 0.00 | 10 | 1019.2 |
| 20260502011117 | 66 | 291 | 6.1 | 9.6 | 0.00 | 0.00 | 0.00 | 9 | 1019.0 |
| 20260502011059 | 66 | 302 | 4.3 | 9.6 | 0.00 | 0.00 | 0.00 | 9 | 1019.2 |
| 20260502010617 | 67 | 301 | 6.1 | 9.6 | 0.00 | 0.00 | 0.00 | 8 | 1018.9 |
| 20260502010506 | 66 | 305 | 7.0 | 9.6 | 0.00 | 0.00 | 0.00 | 8 | 1019.3 |
| 20260502010117 | 67 | 300 | 5.2 | 9.6 | 0.00 | 0.00 | 0.00 | 10 | 1018.9 |
| 20260502010027 | 67 | 303 | 6.1 | 9.6 | 0.00 | 0.00 | 0.00 | 10 | 1019.3 |
| 20260502005638 | 67 | 300 | 5.2 | 8.7 | 0.00 | 0.00 | 0.00 | 9 | 1019.0 |
| 20260502005117 | 67 | 310 | 5.2 | 11.3 | 0.00 | 0.00 | 0.00 | 10 | 1019.0 |
| 20260502005053 | 67 | 278 | 6.1 | 11.3 | 0.00 | 0.00 | 0.00 | 12 | 1019.2 |
| 20260502004617 | 68 | 308 | 6.1 | 11.3 | 0.00 | 0.00 | 0.00 | 12 | 1019.0 |
| 20260502004504 | 67 | 291 | 6.1 | 10.4 | 0.00 | 0.00 | 0.00 | 11 | 1019.3 |
| 20260502004117 | 67 | 312 | 5.2 | 8.7 | 0.00 | 0.00 | 0.00 | 11 | 1019.0 |
| 20260502004020 | 67 | 300 | 7.0 | 10.4 | 0.00 | 0.00 | 0.00 | 10 | 1019.1 |
| 20260502003617 | 67 | 312 | 6.1 | 11.3 | 0.00 | 0.00 | 0.00 | 11 | 1019.0 |
| 20260502003536 | 67 | 300 | 2.6 | 11.3 | 0.00 | 0.00 | 0.00 | 11 | 1019.3 |
| 20260502003117 | 68 | 310 | 7.0 | 11.3 | 0.00 | 0.00 | 0.00 | 10 | 1019.0 |
| 20260502003057 | 67 | 298 | 7.0 | 11.3 | 0.00 | 0.00 | 0.00 | 10 | 1019.3 |
| 20260502002638 | 68 | 322 | 6.1 | 10.4 | 0.00 | 0.00 | 0.00 | 11 | 1019.0 |
| 20260502002502 | 67 | 283 | 7.0 | 10.4 | 0.00 | 0.00 | 0.00 | 12 | 1019.3 |
| 20260502002117 | 68 | 315 | 7.0 | 11.3 | 0.00 | 0.00 | 0.00 | 11 | 1019.0 |
| 20260502002022 | 67 | 329 | 8.7 | 11.3 | 0.00 | 0.00 | 0.00 | 11 | 1019.5 |
| 20260502001617 | 68 | 302 | 6.1 | 11.3 | 0.00 | 0.00 | 0.00 | 12 | 1019.0 |
| 20260502001541 | 67 | 325 | 5.2 | 11.3 | 0.00 | 0.00 | 0.00 | 12 | 1019.3 |
| 20260502001117 | 68 | 311 | 7.0 | 11.3 | 0.00 | 0.00 | 0.00 | 11 | 1019.0 |
| 20260502001059 | 68 | 267 | 7.0 | 11.3 | 0.00 | 0.00 | 0.00 | 11 | 1019.3 |
| 20260502000638 | 68 | 311 | 7.0 | 12.2 | 0.00 | 0.00 | 0.00 | 12 | 1018.8 |
| 20260502000506 | 68 | 326 | 5.2 | 12.2 | 0.00 | 0.00 | 0.00 | 13 | 1019.4 |
| 20260502000117 | 68 | 317 | 7.0 | 12.2 | 0.00 | 0.00 | 0.00 | 11 | 1018.8 |
| 20260502000027 | 68 | 304 | 6.1 | 12.2 | 0.00 | 0.00 | 0.00 | 11 | 1019.2 |
| 20260501235617 | 68 | 317 | 6.1 | 11.3 | 0.00 | 0.00 | 0.00 | 13 | 1018.9 |
| 20260501235552 | 68 | 327 | 7.8 | 11.3 | 0.00 | 0.00 | 0.00 | 13 | 1019.2 |
| 20260501235117 | 68 | 310 | 5.2 | 10.4 | 0.00 | 0.00 | 0.00 | 11 | 1019.0 |
| 20260501234958 | 68 | 292 | 6.1 | 10.4 | 0.00 | 0.00 | 0.00 | 11 | 1019.3 |
| 20260501234617 | 68 | 311 | 5.2 | 10.4 | 0.00 | 0.00 | 0.00 | 12 | 1019.0 |
| 20260501234521 | 68 | 299 | 7.0 | 10.4 | 0.00 | 0.00 | 0.00 | 12 | 1019.3 |
| 20260501234117 | 68 | 312 | 5.2 | 10.4 | 0.00 | 0.00 | 0.00 | 12 | 1019.0 |
| 20260501234036 | 68 | 284 | 6.1 | 10.4 | 0.00 | 0.00 | 0.00 | 13 | 1019.4 |
| 20260501233617 | 68 | 297 | 5.2 | 10.4 | 0.00 | 0.00 | 0.00 | 14 | 1019.0 |
| 20260501233554 | 68 | 24 | 1.7 | 10.4 | 0.00 | 0.00 | 0.00 | 14 | 1019.3 |
| 20260501233117 | 68 | 281 | 5.2 | 10.4 | 0.00 | 0.00 | 0.00 | 12 | 1019.0 |
| 20260501233005 | 67 | 294 | 7.0 | 10.4 | 0.00 | 0.00 | 0.00 | 13 | 1019.3 |
| 20260501232617 | 68 | 290 | 6.1 | 11.3 | 0.00 | 0.00 | 0.00 | 12 | 1019.0 |
| 20260501232117 | 69 | 308 | 5.2 | 11.3 | 0.00 | 0.00 | 0.00 | 12 | 1019.0 |
| 20260501232029 | 68 | 296 | 9.6 | 11.3 | 0.00 | 0.00 | 0.00 | 14 | 1019.2 |
| 20260501231617 | 69 | 329 | 5.2 | 10.4 | 0.00 | 0.00 | 0.00 | 15 | 1019.0 |
| 20260501231550 | 68 | 294 | 3.5 | 10.4 | 0.00 | 0.00 | 0.00 | 14 | 1019.3 |
| 20260501231117 | 69 | 324 | 5.2 | 10.4 | 0.00 | 0.00 | 0.00 | 15 | 1019.0 |
| 20260501231106 | 68 | 5 | 4.3 | 10.4 | 0.00 | 0.00 | 0.00 | 15 | 1019.3 |
| 20260501230638 | 68 | 325 | 4.3 | 8.7 | 0.00 | 0.00 | 0.00 | 15 | 1019.0 |
| 20260501230515 | 68 | 312 | 4.3 | 8.7 | 0.00 | 0.00 | 0.00 | 16 | 1019.4 |
| 20260501230117 | 68 | 318 | 3.5 | 7.8 | 0.00 | 0.00 | 0.00 | 15 | 1019.2 |
| 20260501230033 | 67 | 355 | 1.7 | 7.8 | 0.00 | 0.00 | 0.00 | 14 | 1019.4 |
| 20260501225617 | 68 | 306 | 4.3 | 12.2 | 0.00 | 0.00 | 0.00 | 14 | 1019.3 |
| 20260501225500 | 67 | 275 | 5.2 | 10.4 | 0.00 | 0.00 | 0.00 | 14 | 1019.6 |
| 20260501225117 | 67 | 295 | 5.2 | 12.2 | 0.00 | 0.00 | 0.00 | 16 | 1019.3 |
| 20260501225018 | 67 | 311 | 1.7 | 12.2 | 0.00 | 0.00 | 0.00 | 17 | 1019.6 |
| 20260501224638 | 67 | 290 | 6.1 | 12.2 | 0.00 | 0.00 | 0.00 | 14 | 1019.2 |
| 20260501224538 | 66 | 302 | 9.6 | 12.2 | 0.00 | 0.00 | 0.00 | 15 | 1019.6 |
| 20260501224117 | 67 | 282 | 6.1 | 12.2 | 0.00 | 0.00 | 0.00 | 15 | 1019.2 |
| 20260501224041 | 66 | 319 | 3.5 | 12.2 | 0.00 | 0.00 | 0.00 | 14 | 1019.6 |
| 20260501223617 | 67 | 259 | 6.1 | 11.3 | 0.00 | 0.00 | 0.00 | 16 | 1019.2 |
| 20260501223559 | 66 | 256 | 2.6 | 11.3 | 0.00 | 0.00 | 0.00 | 15 | 1019.5 |
| 20260501223117 | 67 | 273 | 7.0 | 12.2 | 0.00 | 0.00 | 0.00 | 16 | 1019.5 |
| 20260501223009 | 67 | 244 | 7.0 | 12.2 | 0.00 | 0.00 | 0.00 | 17 | 1019.6 |
| 20260501222617 | 67 | 286 | 6.1 | 12.2 | 0.00 | 0.00 | 0.00 | 16 | 1019.5 |
| 20260501222526 | 67 | 325 | 9.6 | 12.2 | 0.00 | 0.00 | 0.00 | 16 | 1019.8 |
| 20260501222117 | 67 | 275 | 4.3 | 14.8 | 0.00 | 0.00 | 0.00 | 17 | 1019.5 |
| 20260501222045 | 67 | 209 | 4.3 | 14.8 | 0.00 | 0.00 | 0.00 | 17 | 1019.8 |
| 20260501221617 | 67 | 245 | 3.5 | 14.8 | 0.00 | 0.00 | 0.00 | 15 | 1019.5 |
| 20260501221601 | 67 | 342 | 13.9 | 14.8 | 0.00 | 0.00 | 0.00 | 15 | 1019.8 |
| 20260501221117 | 67 | 251 | 4.3 | 9.6 | 0.00 | 0.00 | 0.00 | 18 | 1019.5 |
| 20260501221010 | 66 | 256 | 2.6 | 9.6 | 0.00 | 0.00 | 0.00 | 19 | 1019.8 |
| 20260501220617 | 66 | 279 | 6.1 | 9.6 | 0.00 | 0.00 | 0.00 | 17 | 1019.5 |
| 20260501220527 | 66 | 225 | 4.3 | 9.6 | 0.00 | 0.00 | 0.00 | 16 | 1019.9 |
| 20260501220044 | 66 | 288 | 4.3 | 9.6 | 0.00 | 0.00 | 0.00 | 19 | 1019.9 |
| 20260501215117 | 66 | 259 | 6.1 | 13.0 | 0.00 | 0.00 | 0.00 | 17 | 1020.0 |
| 20260501215056 | 65 | 233 | 6.1 | 10.4 | 0.00 | 0.00 | 0.00 | 17 | 1020.1 |
| 20260501214617 | 66 | 243 | 6.1 | 12.2 | 0.00 | 0.00 | 0.00 | 17 | 1020.2 |
| 20260501214506 | 65 | 227 | 7.0 | 13.0 | 0.00 | 0.00 | 0.00 | 17 | 1020.1 |
| 20260501214117 | 66 | 246 | 5.2 | 12.2 | 0.00 | 0.00 | 0.00 | 17 | 1020.2 |
| 20260501214022 | 66 | 234 | 8.7 | 10.4 | 0.00 | 0.00 | 0.00 | 19 | 1020.1 |
| 20260501213617 | 66 | 262 | 5.2 | 10.4 | 0.00 | 0.00 | 0.00 | 19 | 1020.2 |
| 20260501213539 | 65 | 249 | 3.5 | 10.4 | 0.00 | 0.00 | 0.00 | 20 | 1020.3 |
| 20260501213117 | 66 | 264 | 6.1 | 10.4 | 0.00 | 0.00 | 0.00 | 19 | 1020.2 |
| 20260501213046 | 65 | 257 | 7.8 | 10.4 | 0.00 | 0.00 | 0.00 | 18 | 1020.4 |
| 20260501212617 | 66 | 259 | 4.3 | 10.4 | 0.00 | 0.00 | 0.00 | 18 | 1020.2 |
| 20260501212600 | 65 | 275 | 2.6 | 10.4 | 0.00 | 0.00 | 0.00 | 18 | 1020.6 |
| 20260501212117 | 66 | 18 | 4.3 | 10.4 | 0.00 | 0.00 | 0.00 | 18 | 1020.2 |
| 20260501212011 | 66 | 221 | 3.5 | 9.6 | 0.00 | 0.00 | 0.00 | 18 | 1020.5 |
| 20260501211617 | 66 | 347 | 6.1 | 12.2 | 0.00 | 0.00 | 0.00 | 17 | 1020.2 |
| 20260501211528 | 66 | 73 | 3.5 | 12.2 | 0.00 | 0.00 | 0.00 | 17 | 1020.6 |
| 20260501211117 | 67 | 339 | 6.1 | 12.2 | 0.00 | 0.00 | 0.00 | 18 | 1020.2 |
| 20260501211106 | 66 | 28 | 1.7 | 12.2 | 0.00 | 0.00 | 0.00 | 18 | 1020.5 |
| 20260501210617 | 66 | 344 | 4.3 | 10.4 | 0.00 | 0.00 | 0.00 | 20 | 1020.2 |
| 20260501210138 | 66 | 329 | 5.2 | 12.2 | 0.00 | 0.00 | 0.00 | 21 | 1020.3 |
| 20260501205638 | 66 | 316 | 4.3 | 12.2 | 0.00 | 0.00 | 0.00 | 20 | 1020.3 |
| 20260501205511 | 66 | 347 | 4.3 | 12.2 | 0.00 | 0.00 | 0.00 | 19 | 1020.5 |
| 20260501205117 | 66 | 319 | 3.5 | 11.3 | 0.00 | 0.00 | 0.00 | 21 | 1020.3 |
| 20260501205029 | 65 | 278 | 5.2 | 11.3 | 0.00 | 0.00 | 0.00 | 20 | 1020.6 |
| 20260501204617 | 66 | 303 | 5.2 | 11.3 | 0.00 | 0.00 | 0.00 | 21 | 1020.3 |
| 20260501204549 | 65 | 309 | 8.7 | 11.3 | 0.00 | 0.00 | 0.00 | 21 | 1020.7 |
| 20260501204117 | 65 | 302 | 5.2 | 9.6 | 0.00 | 0.00 | 0.00 | 21 | 1020.3 |
| 20260501203959 | 65 | 310 | 3.5 | 9.6 | 0.00 | 0.00 | 0.00 | 19 | 1020.7 |
| 20260501203617 | 65 | 307 | 5.2 | 9.6 | 0.00 | 0.00 | 0.00 | 24 | 1020.3 |
| 20260501203514 | 65 | 331 | 7.8 | 9.6 | 0.00 | 0.00 | 0.00 | 23 | 1020.8 |
| 20260501203117 | 65 | 314 | 4.3 | 9.6 | 0.00 | 0.00 | 0.00 | 21 | 1020.5 |
| 20260501203036 | 65 | 283 | 5.2 | 9.6 | 0.00 | 0.00 | 0.00 | 21 | 1020.8 |
| 20260501202638 | 65 | 315 | 5.2 | 8.7 | 0.00 | 0.00 | 0.00 | 18 | 1020.5 |
| 20260501202551 | 65 | 297 | 2.6 | 8.7 | 0.00 | 0.00 | 0.00 | 20 | 1020.8 |
| 20260501202117 | 65 | 314 | 5.2 | 12.2 | 0.00 | 0.00 | 0.00 | 24 | 1020.5 |
| 20260501202004 | 64 | 281 | 6.1 | 12.2 | 0.00 | 0.00 | 0.00 | 21 | 1020.8 |
| 20260501201617 | 65 | 322 | 5.2 | 12.2 | 0.00 | 0.00 | 0.00 | 21 | 1020.5 |
| 20260501201524 | 64 | 321 | 2.6 | 12.2 | 0.00 | 0.00 | 0.00 | 22 | 1020.8 |
| 20260501201117 | 64 | 317 | 5.2 | 10.4 | 0.00 | 0.00 | 0.00 | 24 | 1020.6 |
| 20260501201020 | 64 | 321 | 7.8 | 10.4 | 0.00 | 0.00 | 0.00 | 21 | 1020.8 |
| 20260501200617 | 64 | 316 | 3.5 | 10.4 | 0.00 | 0.00 | 0.00 | 21 | 1020.6 |
| 20260501200540 | 63 | 304 | 4.3 | 10.4 | 0.00 | 0.00 | 0.00 | 22 | 1021.0 |
| 20260501200117 | 63 | 342 | 4.3 | 10.4 | 0.00 | 0.00 | 0.00 | 21 | 1020.6 |
| 20260501195617 | 64 | 343 | 5.2 | 10.4 | 0.00 | 0.00 | 0.00 | 23 | 1020.7 |
| 20260501195557 | 63 | 15 | 4.3 | 10.4 | 0.00 | 0.00 | 0.00 | 23 | 1021.0 |
| 20260501195117 | 64 | 327 | 4.3 | 10.4 | 0.00 | 0.00 | 0.00 | 23 | 1020.7 |
| 20260501195005 | 63 | 38 | 0.9 | 10.4 | 0.00 | 0.00 | 0.00 | 24 | 1021.1 |